Weather History for CYVR - November, 2013

Change the Weather History Date:

Thursday, November 7, 2013

  Actual Average Record
Temperature  
Mean Temperature 46 °F -  
Max Temperature 50 °F 48 °F 59 °F (2006)
Min Temperature 43 °F 39 °F 26 °F (2003)
Degree Days  
Heating Degree Days 18    
Moisture  
Dew Point 45 °F    
Average Humidity 93    
Maximum Humidity 100    
Minimum Humidity 82    
Precipitation  
Precipitation 0.28 in - - ()
Sea Level Pressure  
Sea Level Pressure 29.77 in    
Wind  
Wind Speed 10 mph ()    
Max Wind Speed 20 mph    
Max Gust Speed 30 mph    
Visibility 13.2 miles    
Events Rain    
Averages and records for this station are not official NWS values.
T = Trace of Precipitation, MM = Missing Value Source: Averaged Metar Reports

Daily Weather History Graph

Daily Weather History Graph

Search for Another Location

Airport or City:

Trip Planner

Search our weather history database for the weather conditions in past years. The results will help you decide how hot, cold, wet, or windy it might be!

Date:

Astronomy

Nov. 07, 2013 Rise Set
Actual Time 7:10 AM PST 4:41 PM PST
Civil Twilight 6:36 AM PST 5:15 PM PST
Nautical Twilight 5:58 AM PST 5:53 PM PST
Astronomical Twilight 5:21 AM PST 6:30 PM PST
Moon 11:28 AM PST (11/7) 8:56 PM PST (11/7)
Length of Visible Light 10h 38m
Length of Day
9h 30m
Waxing Crescent, 24% of the Moon is Illuminated
Nov 7
Waxing Crescent
Nov 9
First Quarter
Nov 17
Full
Nov 25
Last Quarter
Dec 2
New

Hourly Weather History & Observations

Time (PST) Temp. Windchill Dew Point Humidity Pressure Visibility Wind Dir Wind Speed Gust Speed Precip Events Conditions
12:00 AM 44.6 °F 40.7 °F 42.8 °F 93% 30.01 in 15.0 mi East 6.9 mph - N/A Rain Light Rain
1:00 AM 44.6 °F 38.8 °F 42.8 °F 93% 29.97 in 15.0 mi ENE 11.5 mph - N/A Rain Light Rain
2:00 AM 44.6 °F 39.2 °F 42.8 °F 93% 29.93 in 15.0 mi East 10.4 mph - N/A Rain Light Rain
3:00 AM 42.8 °F 36.6 °F 41.0 °F 93% 29.90 in 10.0 mi East 11.5 mph - N/A Rain Light Rain
4:00 AM 44 °F - 42 °F 92% 29.86 in 12 mi East 12.7 mph - - Rain Light Rain
4:00 AM 42.8 °F 36.2 °F 42.8 °F 100% 29.85 in 12.0 mi East 12.7 mph - N/A Rain Light Rain
4:15 AM 42.8 °F 36.2 °F 42.8 °F 100% 29.83 in 15.0 mi East 12.7 mph 18.4 mph N/A   Overcast
4:29 AM 44.6 °F 38.8 °F 42.8 °F 93% 29.82 in 15.0 mi East 11.5 mph - N/A Rain Light Rain
5:00 AM 44.6 °F 39.7 °F 42.8 °F 93% 29.80 in 15.0 mi East 9.2 mph - N/A Rain Light Rain
5:40 AM 44.6 °F 37.8 °F 44.6 °F 100% 29.77 in 10.0 mi East 15.0 mph - N/A Rain Light Rain
6:00 AM 44.6 °F 37.4 °F 42.8 °F 93% 29.74 in 10.0 mi ENE 16.1 mph - N/A Rain Light Rain
7:00 AM 46.4 °F 39.8 °F 44.6 °F 93% 29.69 in 12.0 mi East 16.1 mph - N/A Rain Light Rain
8:00 AM 46.4 °F 40.1 °F 44.6 °F 93% 29.69 in 10.0 mi East 15.0 mph - N/A Rain Light Rain
8:20 AM 46.4 °F 40.4 °F 44.6 °F 93% 29.68 in 10.0 mi East 13.8 mph - N/A Rain Light Rain
8:26 AM 46.4 °F 40.1 °F 44.6 °F 93% 29.68 in 10.0 mi East 15.0 mph - N/A Rain Light Rain
8:36 AM 46.4 °F 40.4 °F 44.6 °F 93% 29.68 in 10.0 mi East 13.8 mph - N/A Rain Light Rain
9:00 AM 46.4 °F 40.7 °F 46.4 °F 100% 29.68 in 8.0 mi East 12.7 mph - N/A Rain Light Rain
9:10 AM 46.4 °F 41.1 °F 46.4 °F 100% 29.68 in 8.0 mi ESE 11.5 mph - N/A Rain Light Rain
9:13 AM 46.4 °F 41.5 °F 46.4 °F 100% 29.68 in 8.0 mi ESE 10.4 mph - N/A Rain Light Rain
9:33 AM 48.2 °F - 46.4 °F 93% 29.67 in 10.0 mi ESE 12.7 mph - N/A Rain Light Rain
10:00 AM 47 °F - 46 °F 95% 29.67 in 15 mi East 11.5 mph - - Rain Light Rain
10:00 AM 48.2 °F - 46.4 °F 93% 29.66 in 15.0 mi East 12.7 mph - N/A Rain Light Rain
10:20 AM 48.2 °F - 46.4 °F 93% 29.67 in 15.0 mi East 10.4 mph - N/A   Overcast
11:00 AM 48.2 °F - 46.4 °F 93% 29.68 in 15.0 mi ENE 10.4 mph - N/A   Mostly Cloudy
12:00 PM 50.0 °F - 48.2 °F 94% 29.69 in 15.0 mi East 11.5 mph - N/A Rain Light Rain
1:00 PM 50.0 °F - 46.4 °F 87% 29.70 in 12.0 mi East 15.0 mph - N/A Rain Light Rain
1:08 PM 50.0 °F - 48.2 °F 94% 29.70 in 12.0 mi East 15.0 mph - N/A Rain Light Rain
1:31 PM 50.0 °F - 46.4 °F 87% 29.70 in 12.0 mi ESE 18.4 mph 29.9 mph N/A Rain Light Rain
2:00 PM 50.0 °F - 46.4 °F 87% 29.70 in 15.0 mi ESE 11.5 mph 18.4 mph N/A Rain Light Rain
2:55 PM 50.0 °F - 46.4 °F 87% 29.70 in 15.0 mi ESE 17.3 mph 24.2 mph N/A   Overcast
3:00 PM 50.0 °F - 46.4 °F 87% 29.70 in 15.0 mi ESE 19.6 mph - N/A   Overcast
4:00 PM 49 °F - 45 °F 82% 29.73 in 15 mi East 10.4 mph - -   Partly Cloudy
4:00 PM 50.0 °F - 44.6 °F 82% 29.73 in 15.0 mi East 10.4 mph - N/A   Overcast
5:00 PM 48.2 °F - 44.6 °F 87% 29.74 in 15.0 mi East 9.2 mph - N/A   Overcast
6:00 PM 48.2 °F - 44.6 °F 87% 29.77 in 15.0 mi ENE 4.6 mph - N/A   Overcast
7:00 PM 48.2 °F - 46.4 °F 93% 29.79 in 15.0 mi NNE 5.8 mph - N/A   Overcast
8:00 PM 48.2 °F - 46.4 °F 93% 29.81 in 15.0 mi NE 6.9 mph - N/A   Mostly Cloudy
9:00 PM 46.4 °F - 44.6 °F 93% 29.86 in 15.0 mi NNE 2.3 mph - N/A   Overcast
9:49 PM 48.2 °F - 46.4 °F 93% 29.87 in 12.0 mi South 3.5 mph - N/A Rain Light Rain
10:00 PM 47 °F - 46 °F 95% 29.88 in 15 mi South 3.5 mph - - Rain Light Rain
10:00 PM 46.4 °F 45.2 °F 46.4 °F 100% 29.88 in 15.0 mi SSE 3.5 mph - N/A Rain Light Rain
10:14 PM 48.2 °F - 46.4 °F 93% 29.88 in 15.0 mi Variable 2.3 mph - N/A   Overcast
10:46 PM 48.2 °F - 46.4 °F 93% 29.89 in 15.0 mi SW 5.8 mph - N/A Rain Light Rain
11:00 PM 48.2 °F - 46.4 °F 93% 29.89 in 15.0 mi West 10.4 mph - N/A Rain Light Rain
11:24 PM 48.2 °F - 46.4 °F 93% 29.91 in 15.0 mi West 11.5 mph 18.4 mph N/A Rain Light Rain